Weather History for Punta Gorda, FL

Change the Weather History Date:

Saturday, December 17, 2011

  Actual Average Record
Temperature  
Mean Temperature 71 °F -  
Max Temperature 81 °F 71 °F 84 °F (2006)
Min Temperature 61 °F 50 °F 41 °F (2002)
Cooling Degree Days 6    
Growing Degree Days 21 (Base 50)    
Moisture  
Dew Point 61 °F    
Average Humidity 76    
Maximum Humidity 97    
Minimum Humidity 45    
Precipitation  
Precipitation 0.00 in - - ()
Sea Level Pressure  
Sea Level Pressure 30.19 in    
Wind  
Wind Speed 4 mph (North)    
Max Wind Speed 9 mph    
Max Gust Speed -    
Visibility 10 miles    
Events      
Averages and records for this station are not official NWS values.
T = Trace of Precipitation, MM = Missing Value Source: NWS Daily Summary

Daily Weather History Graph

Daily Weather History Graph

Search for Another Location

Airport:

Trip Planner

Search our weather history database for the weather conditions in past years. The results will help you decide how hot, cold, wet, or windy it might be!

Date:

Astronomy

Dec. 17, 2011 Rise Set
Actual Time 7:10 AM EST 5:37 PM EST
Civil Twilight 6:44 AM EST 6:03 PM EST
Nautical Twilight 6:15 AM EST 6:32 PM EST
Astronomical Twilight 5:47 AM EST 7:00 PM EST
Moon No Moon Rise 12:00 PM EST (12/17)
Length of Visible Light 11h 18m
Length of Day
10h 27m
Waning Gibbous, 54% of the Moon is Illuminated
Dec 17
Waning Gibbous
Dec 17
Last Quarter
Dec 24
New
Jan 1
First Quarter
Jan 9
Full

Hourly Weather History & Observations

Time (EST) Temp. Heat Index Dew Point Humidity Pressure Visibility Wind Dir Wind Speed Gust Speed Precip Events Conditions
12:53 AM 66.0 °F - 62.1 °F 87% 30.18 in 10.0 mi NE 4.6 mph - N/A   Overcast
1:53 AM 64.0 °F - 61.0 °F 90% 30.17 in 10.0 mi Calm Calm - N/A   Clear
2:53 AM 63.0 °F - 61.0 °F 93% 30.16 in 10.0 mi Calm Calm - N/A   Clear
3:53 AM 63.0 °F - 61.0 °F 93% 30.16 in 9.0 mi North 3.5 mph - N/A   Clear
4:53 AM 61.0 °F - 60.1 °F 97% 30.17 in 7.0 mi NNE 3.5 mph - N/A   Overcast
5:53 AM 63.0 °F - 61.0 °F 93% 30.18 in 9.0 mi Calm Calm - N/A   Overcast
6:53 AM 62.1 °F - 61.0 °F 96% 30.19 in 10.0 mi Calm Calm - N/A   Scattered Clouds
7:53 AM 63.0 °F - 61.0 °F 93% 30.21 in 5.0 mi North 4.6 mph - N/A   Clear
8:53 AM 68.0 °F - 64.0 °F 87% 30.23 in 10.0 mi NNE 5.8 mph - N/A   Clear
9:53 AM 73.9 °F - 64.0 °F 71% 30.24 in 10.0 mi North 5.8 mph - N/A   Clear
10:53 AM 77.0 °F - 64.0 °F 64% 30.24 in 10.0 mi North 5.8 mph - N/A   Clear
11:53 AM 75.9 °F - 63.0 °F 64% 30.22 in 10.0 mi North 6.9 mph - N/A   Partly Cloudy
12:53 PM 77.0 °F - 62.1 °F 60% 30.18 in 10.0 mi NNW 8.1 mph - N/A   Partly Cloudy
1:53 PM 77.0 °F - 61.0 °F 58% 30.15 in 10.0 mi North 5.8 mph - N/A   Partly Cloudy
2:53 PM 81.0 °F 81.1 °F 57.9 °F 45% 30.14 in 10.0 mi NW 5.8 mph - N/A   Scattered Clouds
3:53 PM 81.0 °F 81.1 °F 57.9 °F 45% 30.14 in 10.0 mi Calm Calm - N/A   Clear
4:53 PM 77.0 °F - 59.0 °F 54% 30.14 in 10.0 mi NNW 5.8 mph - N/A   Clear
5:53 PM 71.1 °F - 57.9 °F 63% 30.16 in 10.0 mi NNW 6.9 mph - N/A   Partly Cloudy
6:20 PM 69.8 °F - 59.0 °F 68% 30.17 in 10.0 mi NW 6.9 mph - N/A   Partly Cloudy
7:53 PM 66.9 °F - 57.0 °F 70% 30.19 in 10.0 mi NNW 5.8 mph - N/A   Clear
8:53 PM 64.9 °F - 57.9 °F 78% 30.21 in 10.0 mi NNW 6.9 mph - N/A   Clear
9:53 PM 66.0 °F - 60.1 °F 81% 30.22 in 10.0 mi North 9.2 mph - N/A   Clear
10:53 PM 64.9 °F - 60.1 °F 84% 30.22 in 10.0 mi North 5.8 mph - N/A   Clear
11:53 PM 64.0 °F - 61.0 °F 90% 30.22 in 10.0 mi North 5.8 mph - N/A   Clear